Back to catalog

COSMOS 1275 DEB

LostPO
NORAD 42127·DEBRIS·🇷🇺 Russia

Launched Jun 4, 1981 from Plesetsk Cosmodrome

Loading…

Next Passes (next 24 hours)

TLE

StaleSource: Space-Track

Epoch: Oct 8, 2024, 11:45 UTC

1 42127U 81053QP  24282.48987596  .00017679  00000-0  87488-2 0  9994
2 42127  82.8335 181.3772 0034441  48.2400 131.8716 14.16864391524540

Track COSMOS 1275 DEB in real time with AllMySat

Download on the App Store